Location: Julian California
(33.0790°N, 116.6010°W)
Time: 13:22:04
(UTC-07:00)

ATLAS 2AS CENTAUR R/B - Pass Details

Date: 14 June 2018
Orbit: 912 x 1300 km, 63.7° (Epoch: 17 June)

Event Time Altitude Azimuth Distance (km) Brightness Sun altitude
Exits shadow 22:31:26 48° 152° (SSE) 1,586 3.1 -25.0°
Maximum altitude 22:33:02 55° 113° (ESE) 1,478 3.1 -25.2°
Drops below altitude 10° 22:40:49 10° 39° (NE) 3,304 5.5 -26.1°
Sets 22:43:45 0° 35° (NE) 4,286 6.1 -26.4°
